Retour au catalogue

SL-8 R/B

ActifLEO
NORAD 3131·ROCKET BODY·🇷🇺 Russia

Lancé Feb 20, 1968 depuis Plesetsk Cosmodrome

Loading…

Prochains Passages (prochaines 24 heures)

TLE

FraisSource: Space-Track

Époque: Sep 14, 2026, 05:10 UTC

1 03131U 68011B   26257.21534249  .00000220  00000-0  61137-3 0  9991
2 03131  74.0541 338.8633 0014081 167.9408 192.2021 13.18038159817084

Suivez SL-8 R/B en temps réel avec AllMySat

Download on the App Store